[[{"header":{"parameterUnit":"m.s-1","parameterCategory":1,"la1":30.2991,"la2":30.254,"lo1":-89.0895,"lo2":-89.0444,"dx":0.0017,"dy":0.0017,"nx":28,"ny":28,"refTime":"2023-01-22T03:00:00:Z","depth":0,"parameterNumber":2,"parameterNumberName":"U-component_of_WINDS"},"data":[0,0,0,0,0,0,0,0,0,0,0,0,0,0,0,0,0,0,0,0,0,0,0,0,0,0,0,0,0,0,0,0,0,0,0,0,0,0,0,0,0,0,0,0,0,0,0,0,0,0,0,0,0,0,0,0,0,0,-1.5289,-1.5289,0,-1.5292,-1.5292,-1.5292,-1.5232,-1.523,-1.5229,-1.5227,-1.5233,-1.5235,-1.5236,0,0,0,0,0,0,0,0,0,0,0,0,0,-1.5233,-1.5234,-1.5289,-1.5289,-1.5289,-1.5292,-1.5292,-1.5292,-1.5232,-1.523,-1.5228,-1.5226,-1.5232,-1.5234,-1.5236,0,0,0,0,0,0,0,0,0,0,0,0,0,-1.5249,-1.5235,-1.5289,-1.5259,-1.5257,-1.5292,-1.5292,-1.5292,-1.5232,-1.523,-1.5228,-1.5225,-1.5232,-1.5234,-1.5237,-1.5301,0,0,-1.5244,-1.5245,0,0,0,0,0,0,0,0,-1.5248,-1.5251,-1.5264,-1.5261,-1.5259,-1.5259,-1.5274,-1.5295,-1.5233,-1.5242,-1.5227,-1.5224,-1.5244,-1.5245,-1.5251,-1.5302,-1.5302,-1.5245,-1.5246,-1.5247,-1.5248,0,0,0,0,0,0,0,-1.5247,-1.525,-1.529,-1.5264,-1.5261,-1.5246,-1.5246,-1.5278,-1.5257,-1.5241,-1.5236,-1.5238,-1.5242,-1.5249,-1.5251,-1.5302,-1.5245,-1.5247,-1.5248,-1.5249,-1.5405,-1.5407,0,0,0,0,0,0,-1.525,-1.525,-1.529,-1.529,-1.5247,-1.525,-1.5249,-1.5261,-1.5256,-1.5253,-1.524,-1.5235,-1.5246,-1.5248,-1.5251,-1.5325,-1.5247,-1.525,-1.5251,-1.5402,-1.5405,-1.5408,0,0,0,0,0,0,-1.5249,-1.5254,-1.529,-1.5269,-1.5272,-1.5253,-1.5267,-1.5263,-1.527,-1.5255,-1.5251,-1.5251,-1.5244,-1.5247,-1.5289,-1.5325,-1.5251,-1.5253,-1.5399,-1.5403,-1.5407,-1.5476,0,0,0,0,0,0,-1.5247,-1.5254,-1.5278,-1.527,-1.5274,-1.5328,-1.527,-1.5265,-1.5274,-1.5267,-1.5264,-1.5261,-1.5242,-1.5285,-1.5291,-1.5327,-1.5255,-1.5396,-1.5401,-1.5405,-1.547,-1.5482,-1.5491,0,0,0,0,0,-1.5245,-1.5298,-1.5279,-1.5284,-1.5303,-1.533,-1.5332,-1.5308,-1.5277,-1.5301,-1.5292,-1.5262,-1.532,-1.529,-1.5296,-1.5333,-1.5393,-1.5399,-1.5405,-1.5465,-1.5479,-1.5491,0,0,0,0,0,0,-1.5312,-1.5296,-1.5276,-1.5327,-1.533,-1.5319,-1.5349,-1.5324,-1.5336,-1.533,-1.5301,-1.53,-1.5347,-1.5344,-1.5311,-1.5395,-1.5351,-1.5359,-1.5395,-1.5408,-1.5418,-1.5418,-1.5257,0,0,0,0,0,-1.5332,-1.5354,-1.534,-1.5387,-1.5389,-1.5369,-1.538,-1.5361,-1.5363,-1.5365,-1.5358,-1.5362,-1.5381,-1.5395,-1.5411,-1.5469,-1.5468,-1.5498,-1.5508,-1.5517,-1.5524,-1.5554,-1.5567,-1.5427,-1.5427,-1.5427,0,0,-1.5375,-1.5369,-1.5385,-1.54,-1.54,-1.5424,-1.5371,-1.5399,-1.5416,-1.5369,-1.5407,-1.5403,-1.5405,-1.5455,-1.5477,-1.5455,-1.5562,-1.5525,-1.5532,-1.5534,-1.5561,-1.5574,-1.5586,-1.5431,-1.543,-1.543,0,0,-1.5465,-1.5463,-1.5501,-1.5502,-1.5502,-1.5489,-1.5498,-1.5491,-1.5486,-1.5524,-1.5488,-1.5509,-1.5543,-1.5546,-1.5552,-1.5642,-1.5615,-1.5649,-1.5704,-1.5733,-1.5744,-1.5754,-1.5786,-1.5797,-1.5655,-1.5656,-1.5656,0,-1.5519,-1.5552,-1.5525,-1.5554,-1.5561,-1.5519,-1.5557,-1.556,-1.5566,-1.5573,-1.5547,-1.5588,-1.5587,-1.5636,-1.5658,-1.5665,-1.5674,-1.5649,-1.5745,-1.5754,-1.5763,-1.5793,-1.5805,-1.566,-1.5659,-1.5659,-1.5658,0,-1.5618,-1.5642,-1.5673,-1.5678,-1.5689,-1.5724,-1.5701,-1.5716,-1.5696,-1.5685,-1.5724,-1.572,-1.5735,-1.5746,-1.5727,-1.5793,-1.5779,-1.575,-1.5705,-1.5781,-1.5808,-1.5819,-1.5665,-1.5664,-1.5663,-1.5662,0,0,-1.575,-1.5739,-1.5751,-1.5753,-1.5749,-1.5768,-1.58,-1.5814,-1.5826,-1.5832,-1.5858,-1.5887,-1.586,-1.5867,-1.5848,-1.5874,-1.5945,-1.5841,-1.5841,-1.5861,-1.6016,-1.6038,-1.6052,-1.5927,-1.5929,-1.593,-1.6016,0,-1.5837,-1.589,-1.5866,-1.5922,-1.5944,-1.5903,-1.5931,-1.5933,-1.5923,-1.594,-1.593,-1.5951,-1.5913,-1.5917,-1.5941,-1.5931,-1.5976,-1.5925,-1.5951,-1.5953,-1.5952,-1.6066,-1.609,-1.617,-1.6027,-1.6028,-1.603,0,-1.5946,-1.5955,-1.6013,-1.6005,-1.6013,-1.6038,-1.6048,-1.6065,-1.6066,-1.6057,-1.6064,-1.6039,-1.6071,-1.6026,-1.6069,-1.6035,-1.6044,-1.6041,-1.6044,-1.6045,-1.5996,-1.6071,-1.6196,-1.6208,-1.6047,-1.6045,-1.6044,0,-1.6036,-1.6063,-1.61,-1.6103,-1.6095,-1.6114,-1.6111,-1.6109,-1.6119,-1.6128,-1.6134,-1.6147,-1.6154,-1.6165,-1.6144,-1.6114,-1.619,-1.6144,-1.6184,-1.6184,-1.6202,-1.6201,-1.633,-1.6208,-1.6208,-1.6208,-1.6208,0,-1.6136,-1.6173,-1.6141,-1.6164,-1.6204,-1.6176,-1.6217,-1.621,-1.6208,-1.623,-1.6196,-1.6217,-1.6189,-1.6207,-1.6192,-1.6229,-1.6233,-1.6227,-1.6222,-1.623,-1.6231,-1.6235,-1.6229,-1.6211,-1.621,-1.621,-1.6209,0,-1.6244,-1.6223,-1.6262,-1.625,-1.6248,-1.6278,-1.6269,-1.629,-1.6278,-1.6305,-1.631,-1.6291,-1.6311,-1.6292,-1.6311,-1.63,-1.635,-1.6338,-1.635,-1.6346,-1.6387,-1.6383,-1.6523,-1.654,-1.6409,-1.641,-1.6411,0,-1.6308,-1.6336,-1.6326,-1.6338,-1.6337,-1.6356,-1.6365,-1.6338,-1.6349,-1.6351,-1.6372,-1.6389,-1.6401,-1.6435,-1.6423,-1.6438,-1.6425,-1.6473,-1.6427,-1.6434,-1.6425,-1.6424,-1.6426,-1.6483,-1.6484,-1.6485,-1.6487,0,-1.6425,-1.6413,-1.6427,-1.6437,-1.6449,-1.6456,-1.646,-1.6472,-1.6444,-1.6458,-1.6477,-1.6487,-1.6505,-1.6522,-1.6533,-1.6531,-1.6505,-1.6501,-1.6511,-1.6519,-1.6525,-1.6522,-1.6375,-1.6498,-1.6497,-1.6496,-1.6495,-1.6495,-1.6513,-1.6535,-1.6532,-1.6548,-1.6548,-1.6553,-1.6572,-1.6561,-1.6577,-1.6589,-1.6572,-1.6596,-1.6596,-1.6607,-1.6608,-1.6626,-1.6606,-1.6621,-1.6624,-1.6628,-1.6634,-1.6522,-1.6628,-1.6628,-1.6628,-1.6627,-1.6627,0,-1.6628,-1.6623,-1.6638,-1.6645,-1.6658,-1.663,-1.6634,-1.6646,-1.6667,-1.6669,-1.668,-1.6702,-1.6719,-1.6708,-1.6722,-1.6739,-1.6727,-1.6743,-1.6742,-1.6742,-1.6652,-1.6641,-1.6753,-1.6753,-1.6753,-1.6753,-1.6753,-1.6752,-1.6689,-1.6724,-1.6712,-1.6747,-1.6743,-1.6765,-1.6769,-1.6773,-1.6774,-1.6799,-1.6812,-1.6805,-1.6801,-1.6814,-1.6828,-1.6824,-1.6831,-1.6852,-1.6844,-1.676,-1.6748,-1.6736,-1.6726,-1.6854,-1.6854,-1.6932,-1.6933,-1.6934]},{"header":{"parameterUnit":"m.s-1","parameterCategory":1,"la1":30.2991,"la2":30.254,"lo1":-89.0895,"lo2":-89.0444,"dx":0.0017,"dy":0.0017,"nx":28,"ny":28,"refTime":"2023-01-22T03:00:00:Z","depth":0,"parameterNumber":3,"parameterNumberName":"V-component_of_WINDS"},"data":[0,0,0,0,0,0,0,0,0,0,0,0,0,0,0,0,0,0,0,0,0,0,0,0,0,0,0,0,0,0,0,0,0,0,0,0,0,0,0,0,0,0,0,0,0,0,0,0,0,0,0,0,0,0,0,0,0,0,-2.4092,-2.4092,0,-2.4152,-2.4152,-2.4153,-2.4169,-2.4169,-2.4168,-2.4168,-2.4226,-2.4228,-2.423,0,0,0,0,0,0,0,0,0,0,0,0,0,-2.3986,-2.3988,-2.4092,-2.4092,-2.4093,-2.4152,-2.4153,-2.4153,-2.4169,-2.4169,-2.4168,-2.4168,-2.4225,-2.4227,-2.423,0,0,0,0,0,0,0,0,0,0,0,0,0,-2.4038,-2.3989,-2.4091,-2.4108,-2.411,-2.4152,-2.4153,-2.4154,-2.4169,-2.4169,-2.4168,-2.4168,-2.4225,-2.4227,-2.423,-2.4258,0,0,-2.4239,-2.424,0,0,0,0,0,0,0,0,-2.4035,-2.4041,-2.4105,-2.4107,-2.411,-2.4153,-2.4137,-2.4188,-2.4169,-2.4147,-2.4168,-2.4167,-2.4202,-2.4206,-2.4219,-2.4261,-2.4263,-2.4239,-2.4241,-2.4242,-2.4243,0,0,0,0,0,0,0,-2.4031,-2.4039,-2.4115,-2.4106,-2.4109,-2.4111,-2.4118,-2.4146,-2.4176,-2.4149,-2.415,-2.4157,-2.4203,-2.4216,-2.422,-2.4264,-2.4239,-2.4241,-2.4243,-2.4244,-2.4331,-2.4331,0,0,0,0,0,0,-2.4025,-2.4036,-2.4113,-2.4117,-2.407,-2.4114,-2.4121,-2.4139,-2.4176,-2.4181,-2.4157,-2.4158,-2.4211,-2.4217,-2.4222,-2.4257,-2.4242,-2.4244,-2.4246,-2.433,-2.4331,-2.4331,0,0,0,0,0,0,-2.4023,-2.4032,-2.4111,-2.4077,-2.4087,-2.4116,-2.4136,-2.4141,-2.4154,-2.4183,-2.4188,-2.4166,-2.4211,-2.4218,-2.4249,-2.4259,-2.4246,-2.4248,-2.4329,-2.433,-2.4331,-2.4326,0,0,0,0,0,0,-2.402,-2.4031,-2.4043,-2.4077,-2.4089,-2.4138,-2.4137,-2.4142,-2.4159,-2.416,-2.4192,-2.4197,-2.4211,-2.4245,-2.4252,-2.4263,-2.425,-2.4329,-2.433,-2.4331,-2.4326,-2.4327,-2.4328,0,0,0,0,0,-2.4016,-2.4038,-2.4043,-2.4053,-2.4105,-2.4138,-2.4145,-2.4163,-2.416,-2.4171,-2.419,-2.4195,-2.4257,-2.4248,-2.4256,-2.4268,-2.4328,-2.4329,-2.4331,-2.4325,-2.4327,-2.4328,0,0,0,0,0,0,-2.4003,-2.4043,-2.4049,-2.4084,-2.4108,-2.4141,-2.4156,-2.4164,-2.4188,-2.4188,-2.4207,-2.4214,-2.4244,-2.4259,-2.4248,-2.4296,-2.4292,-2.4295,-2.4285,-2.4287,-2.4288,-2.4283,-2.4253,0,0,0,0,0,-2.4005,-2.403,-2.4063,-2.409,-2.4102,-2.4127,-2.4142,-2.4154,-2.4179,-2.4189,-2.421,-2.4233,-2.4257,-2.4273,-2.4297,-2.4328,-2.4334,-2.434,-2.4341,-2.4342,-2.4344,-2.4361,-2.4363,-2.4336,-2.4336,-2.4336,0,0,-2.4007,-2.4032,-2.4047,-2.4088,-2.4108,-2.4133,-2.4135,-2.4162,-2.418,-2.4193,-2.4223,-2.4239,-2.4266,-2.4297,-2.4311,-2.431,-2.4353,-2.4344,-2.4344,-2.4346,-2.4362,-2.4365,-2.4367,-2.4337,-2.4337,-2.4337,0,0,-2.4025,-2.4047,-2.4072,-2.4092,-2.4123,-2.4139,-2.4145,-2.4177,-2.4189,-2.422,-2.423,-2.4251,-2.4293,-2.4312,-2.4327,-2.4351,-2.4357,-2.4358,-2.4364,-2.438,-2.4382,-2.4384,-2.4392,-2.4395,-2.4361,-2.4361,-2.4361,0,-2.4024,-2.4063,-2.4083,-2.4109,-2.4126,-2.4141,-2.4165,-2.4183,-2.4219,-2.423,-2.4229,-2.4282,-2.4301,-2.4336,-2.4342,-2.4354,-2.436,-2.4355,-2.4381,-2.4383,-2.4385,-2.4393,-2.4396,-2.4361,-2.4361,-2.4361,-2.4361,0,-2.406,-2.4087,-2.4103,-2.4139,-2.4159,-2.4183,-2.4206,-2.4223,-2.4232,-2.4248,-2.4279,-2.4303,-2.4332,-2.4341,-2.435,-2.4377,-2.4375,-2.4377,-2.4374,-2.4387,-2.4395,-2.4398,-2.436,-2.4361,-2.4361,-2.4361,0,0,-2.4072,-2.4119,-2.4124,-2.4141,-2.4175,-2.4196,-2.4221,-2.425,-2.4264,-2.4288,-2.4309,-2.4344,-2.4346,-2.4363,-2.4374,-2.4388,-2.4405,-2.4388,-2.4389,-2.439,-2.4435,-2.4433,-2.4437,-2.441,-2.441,-2.4411,-2.4433,0,-2.4093,-2.414,-2.4158,-2.4196,-2.422,-2.4234,-2.4255,-2.4278,-2.4294,-2.4316,-2.4332,-2.4357,-2.4358,-2.4368,-2.4382,-2.44,-2.4414,-2.4399,-2.4428,-2.4429,-2.442,-2.4441,-2.4439,-2.4459,-2.4436,-2.4437,-2.4437,0,-2.4125,-2.4151,-2.4191,-2.4223,-2.4233,-2.4253,-2.4281,-2.4302,-2.4328,-2.4338,-2.4357,-2.4368,-2.4393,-2.4388,-2.4423,-2.4412,-2.4425,-2.4435,-2.4436,-2.4439,-2.4433,-2.4444,-2.4466,-2.4468,-2.4442,-2.4442,-2.4441,0,-2.4128,-2.4173,-2.4203,-2.4217,-2.4254,-2.4267,-2.4283,-2.4309,-2.4325,-2.4349,-2.436,-2.4386,-2.44,-2.442,-2.4437,-2.4432,-2.4469,-2.4466,-2.4478,-2.4477,-2.4485,-2.4484,-2.4508,-2.4494,-2.4494,-2.4494,-2.4493,0,-2.415,-2.4174,-2.4205,-2.4223,-2.425,-2.427,-2.4296,-2.4312,-2.4335,-2.4356,-2.4368,-2.4387,-2.4409,-2.443,-2.4443,-2.447,-2.4476,-2.4484,-2.4487,-2.4483,-2.4481,-2.4491,-2.449,-2.4494,-2.4494,-2.4494,-2.4494,0,-2.4158,-2.418,-2.4214,-2.4247,-2.4256,-2.4274,-2.4301,-2.4319,-2.4335,-2.4361,-2.4368,-2.4393,-2.4419,-2.4438,-2.4471,-2.448,-2.4507,-2.4511,-2.4499,-2.4501,-2.4511,-2.4509,-2.4541,-2.4546,-2.4529,-2.4529,-2.4529,0,-2.4171,-2.419,-2.4225,-2.4241,-2.4257,-2.4281,-2.4299,-2.4319,-2.4336,-2.4366,-2.438,-2.4407,-2.4429,-2.4469,-2.449,-2.4514,-2.4518,-2.4528,-2.4522,-2.4517,-2.4518,-2.4516,-2.4518,-2.4528,-2.4529,-2.4529,-2.4529,0,-2.419,-2.42,-2.4225,-2.4254,-2.4274,-2.4297,-2.432,-2.4332,-2.4356,-2.4374,-2.4401,-2.4419,-2.4453,-2.4479,-2.4506,-2.4521,-2.4528,-2.4531,-2.4534,-2.453,-2.4522,-2.4526,-2.4501,-2.453,-2.4529,-2.4529,-2.4529,-2.4529,-2.4201,-2.4218,-2.4246,-2.4272,-2.4292,-2.4314,-2.4332,-2.4351,-2.4374,-2.4404,-2.4414,-2.4442,-2.4466,-2.4504,-2.4519,-2.454,-2.454,-2.4545,-2.4547,-2.4548,-2.4547,-2.4519,-2.4545,-2.4545,-2.4545,-2.4545,-2.4545,0,-2.422,-2.4239,-2.4264,-2.4296,-2.4317,-2.4324,-2.435,-2.4366,-2.4391,-2.4414,-2.4436,-2.4467,-2.4492,-2.4514,-2.454,-2.4552,-2.4557,-2.4558,-2.4557,-2.4561,-2.4546,-2.454,-2.4555,-2.4555,-2.4555,-2.4555,-2.4555,-2.4555,-2.4233,-2.4262,-2.4275,-2.4314,-2.4332,-2.4361,-2.4375,-2.4394,-2.4412,-2.4446,-2.4468,-2.4483,-2.4505,-2.4532,-2.4555,-2.4561,-2.457,-2.4571,-2.4577,-2.4563,-2.4562,-2.456,-2.4555,-2.4573,-2.4573,-2.459,-2.459,-2.459]}]]